Location: Chochol
(49.7771°N, 14.9780°E)
Time: 23:00:19
(UTC+00:00)

SJ-11-01 - Pass Details

Date: 09 April 2020
Orbit: 683 x 702 km, 98.0° (Epoch: 03 June)

Event Time Altitude Azimuth Distance (km) Brightness Sun altitude
Rises 18:07:53 0° 165° (SSE) 3,059 7.3 -4.4°
Reaches altitude 10° 18:10:06 10° 166° (SSE) 2,149 6.5 -4.8°
Maximum altitude 18:14:50 87° 255° (WSW) 706 4.4 -5.5°
Drops below altitude 10° 18:19:37 10° 346° (NNW) 2,176 7.4 -6.2°
Sets 18:21:53 0° 346° (NNW) 3,100 8.2 -6.5°
